TimeMST,TemperatureF,Dew PointF,Humidity,Sea Level PressureIn,VisibilityMPH,Wind Direction,Wind SpeedMPH,Gust SpeedMPH,PrecipitationIn,Events,Conditions,WindDirDegrees,DateUTC
12:53 AM,32.0,5.0,32,30.17,10.0,Calm,Calm,-,N/A,,Clear,0,2011-11-03 07:53:00
1:53 AM,28.0,7.0,41,30.17,10.0,SSW,3.5,-,N/A,,Clear,200,2011-11-03 08:53:00
2:53 AM,28.0,7.0,41,30.16,10.0,SSW,4.6,-,N/A,,Clear,210,2011-11-03 09:53:00
3:53 AM,26.1,7.0,44,30.15,10.0,South,4.6,-,N/A,,Clear,180,2011-11-03 10:53:00
4:53 AM,27.0,7.0,43,30.15,10.0,SSW,3.5,-,N/A,,Clear,200,2011-11-03 11:53:00
5:53 AM,26.1,6.1,43,30.17,10.0,SSW,5.8,-,N/A,,Clear,200,2011-11-03 12:53:00
6:53 AM,26.1,6.1,43,30.19,10.0,Calm,Calm,-,N/A,,Clear,0,2011-11-03 13:53:00
7:53 AM,32.0,8.1,37,30.19,10.0,Calm,Calm,-,N/A,,Clear,0,2011-11-03 14:53:00
8:53 AM,41.0,7.0,25,30.16,10.0,Calm,Calm,-,N/A,,Clear,0,2011-11-03 15:53:00
9:53 AM,45.0,6.1,20,30.16,10.0,North,3.5,-,N/A,,Clear,10,2011-11-03 16:53:00
10:53 AM,51.1,6.1,16,30.12,10.0,NNE,4.6,-,N/A,,Clear,30,2011-11-03 17:53:00
12:53 PM,64.9,3.9,9,30.00,10.0,East,9.2,-,N/A,,Clear,80,2011-11-03 19:53:00
1:45 PM,66.2,6.8,10,30.09,10.0,SE,10.4,-,N/A,,Clear,130,2011-11-03 20:45:00
1:53 PM,66.9,6.1,9,29.97,10.0,East,10.4,17.3,N/A,,Clear,100,2011-11-03 20:53:00
2:53 PM,66.9,7.0,10,29.94,10.0,ESE,17.3,25.3,N/A,,Clear,120,2011-11-03 21:53:00
3:53 PM,66.0,8.1,10,29.95,10.0,SE,17.3,23.0,N/A,,Clear,130,2011-11-03 22:53:00
4:53 PM,63.0,8.1,11,29.96,10.0,South,4.6,-,N/A,,Mostly Cloudy,180,2011-11-03 23:53:00
5:53 PM,59.0,10.9,15,29.96,10.0,South,8.1,-,N/A,,Partly Cloudy,190,2011-11-04 00:53:00
6:53 PM,55.0,14.0,20,29.98,10.0,South,4.6,-,N/A,,Clear,190,2011-11-04 01:53:00
7:53 PM,55.0,10.9,17,29.95,10.0,South,4.6,-,N/A,,Clear,190,2011-11-04 02:53:00
8:53 PM,50.0,14.0,24,29.93,10.0,Calm,Calm,-,N/A,,Clear,0,2011-11-04 03:53:00
9:53 PM,50.0,12.2,22,30.03,10.0,WSW,3.5,-,N/A,,Clear,240,2011-11-04 04:53:00
10:53 PM,48.9,12.9,24,29.88,10.0,Calm,Calm,-,N/A,,Clear,0,2011-11-04 05:53:00
11:53 PM,45.0,15.1,30,29.85,10.0,Calm,Calm,-,N/A,,Clear,0,2011-11-04 06:53:00